CW3517 Weather Reports


time (UTC)temp
C
wind
direction
speed
KPH
gust
KPH
rain 1hr
cm
rain 24hr
cm
rain mn
cm
humidity
%
barometer
mb
20260502210004 11 0 0.0 0.0 0.00 1.35 1.35 97 1010.9
20260502205004 11 0 0.0 0.0 0.00 1.35 1.35 97 1010.8
20260502204003 11 0 0.0 0.0 0.00 1.35 1.35 97 1010.8
20260502203218 11 0 0.0 0.0 0.00 1.35 1.35 97 1010.7
20260502202218 11 0 0.0 0.0 0.00 1.35 1.35 96 1010.9
20260502201003 11 0 0.0 0.0 0.00 1.35 1.35 97 1010.8
20260502200218 11 0 0.0 0.0 0.00 1.35 1.35 97 1010.7
20260502195003 11 0 0.0 0.0 0.00 1.35 1.35 97 1010.8
20260502194003 11 0 0.0 0.0 0.00 1.35 1.35 97 1010.8
20260502193003 11 0 0.0 0.0 0.00 1.35 1.35 97 1010.9
20260502192218 11 0 0.0 0.0 0.00 1.35 1.35 96 1011.0
20260502191003 11 0 0.0 0.0 0.00 1.35 1.35 96 1011.1
20260502190003 11 0 0.0 0.0 0.00 1.35 1.35 96 1011.2
20260502185003 11 0 0.0 0.0 0.00 1.35 1.35 97 1011.2
20260502184217 11 0 0.0 0.0 0.00 1.35 1.35 96 1011.2
20260502183003 11 0 0.0 0.0 0.03 1.35 1.35 96 1011.2
20260502182003 11 0 0.0 0.0 0.03 1.35 1.35 96 1011.3
20260502181003 11 0 0.0 0.0 0.03 1.35 1.35 96 1011.4
20260502180217 11 0 0.0 1.6 0.05 1.35 1.35 96 1011.5
20260502164003 11 199 3.2 11.3 0.33 1.27 1.27 95 1012.4
20260502163003 11 179 3.2 8.0 0.33 1.22 1.22 95 1012.4
20260502162217 11 184 3.2 9.7 0.30 1.17 1.17 95 1012.4
20260502161218 11 205 3.2 11.3 0.30 1.14 1.14 95 1012.5
20260502152003 12 315 1.6 6.4 0.43 0.89 0.89 94 1012.7
20260502151003 12 316 1.6 4.8 0.48 0.81 0.81 94 1012.7
20260502123003 15 136 11.3 20.9 0.00 0.00 0.00 74 1014.5
20260502122217 15 144 11.3 24.1 0.00 0.00 0.00 73 1014.7
20260502121003 16 149 11.3 16.1 0.00 0.00 0.00 71 1014.9
20260502115217 16 137 11.3 22.5 0.00 0.00 0.00 70 1014.9
20260502113003 17 172 4.8 11.3 0.00 0.00 0.00 67 1015.1
20260502112217 17 176 4.8 11.3 0.00 0.00 0.00 66 1015.1
20260502111003 18 147 3.2 9.7 0.00 0.00 0.00 65 1015.1
20260502110003 18 234 1.6 6.4 0.00 0.00 0.00 69 1015.2
20260502105003 17 170 1.6 8.0 0.00 0.00 0.00 65 1015.5
20260502104003 17 195 4.8 12.9 0.00 0.03 0.00 67 1015.8
20260502103003 17 163 3.2 9.7 0.00 0.03 0.00 68 1015.8
20260502102003 17 180 4.8 9.7 0.00 0.03 0.00 68 1016.1
20260502101003 16 132 3.2 8.0 0.00 0.03 0.00 73 1016.3
20260502100218 16 78 1.6 6.4 0.00 0.03 0.00 72 1016.4
20260502091003 15 203 3.2 9.7 0.00 0.03 0.00 77 1016.6
20260502071003 11 0 0.0 0.0 0.00 0.03 0.00 89 1017.5
20260502070003 11 0 0.0 0.0 0.00 0.05 0.00 89 1017.5
20260502065003 10 0 0.0 0.0 0.00 0.23 0.00 90 1017.4
20260502064004 10 0 0.0 0.0 0.00 0.25 0.00 90 1017.4
20260502063003 10 0 0.0 3.2 0.00 0.25 0.00 91 1017.4
20260502062003 10 0 0.0 3.2 0.00 0.25 0.00 92 1017.6
20260502061003 9 0 0.0 3.2 0.00 0.25 0.00 93 1017.6
20260502060003 8 0 0.0 0.0 0.00 0.25 0.00 95 1017.7
20260502055003 8 0 0.0 0.0 0.00 0.30 0.00 95 1017.6
20260502054003 8 0 0.0 0.0 0.00 0.30 0.00 95 1017.8
20260502053003 7 0 0.0 0.0 0.00 0.30 0.00 95 1017.9
20260502052004 7 0 0.0 0.0 0.00 0.30 0.00 95 1017.8
20260502051003 7 0 0.0 0.0 0.00 0.30 0.00 95 1017.9
20260502050216 7 0 0.0 0.0 0.00 0.30 0.00 95 1017.9
20260502045003 7 0 0.0 0.0 0.00 0.30 0.00 94 1018.0
20260502044003 7 0 0.0 0.0 0.00 0.30 0.00 94 1018.0
20260502043003 7 0 0.0 0.0 0.00 0.30 0.00 94 1017.9
20260502042003 8 0 0.0 0.0 0.00 0.30 0.00 94 1017.9
20260502041003 8 0 0.0 0.0 0.00 0.30 0.00 94 1017.9
20260502040003 8 0 0.0 0.0 0.00 0.30 0.00 94 1017.8
20260502035218 8 0 0.0 0.0 0.00 0.30 0.00 94 1017.8
20260502034003 8 0 0.0 0.0 0.00 0.30 0.00 95 1018.0
20260502033218 7 0 0.0 0.0 0.00 0.30 0.00 95 1018.0
20260502032218 7 0 0.0 0.0 0.00 0.30 0.00 94 1018.1
20260502031218 7 0 0.0 0.0 0.00 0.30 0.00 94 1018.2
20260502030003 7 0 0.0 0.0 0.00 0.30 0.00 94 1018.3
20260502025003 7 0 0.0 0.0 0.00 0.30 0.00 93 1018.5
20260502024003 7 0 0.0 0.0 0.00 0.30 0.00 93 1018.6
20260502023004 8 0 0.0 0.0 0.00 0.30 0.00 93 1018.7
20260502022003 8 0 0.0 0.0 0.00 0.30 0.00 93 1018.7
20260502021003 8 0 0.0 0.0 0.00 0.30 0.00 92 1018.7
20260502020217 8 0 0.0 0.0 0.00 0.30 0.00 92 1018.7
20260502015003 8 0 0.0 0.0 0.00 0.30 0.00 91 1019.0
20260502014003 8 0 0.0 0.0 0.00 0.30 0.00 91 1019.1
20260502013003 9 0 0.0 0.0 0.00 0.30 0.00 91 1019.2
20260502012003 9 0 0.0 0.0 0.00 0.30 0.00 91 1019.4
20260502011003 9 0 0.0 0.0 0.00 0.30 0.00 91 1019.5
20260502010003 9 0 0.0 0.0 0.00 0.30 0.00 91 1019.5
20260502005003 9 0 0.0 0.0 0.00 0.30 0.00 91 1019.5
20260502004003 10 0 0.0 0.0 0.00 0.30 0.00 91 1019.6
20260502003003 10 0 0.0 0.0 0.00 0.30 0.00 91 1019.6
20260502002003 9 0 0.0 0.0 0.00 0.30 0.00 91 1019.6
20260502001003 9 0 0.0 0.0 0.00 0.30 0.00 90 1019.8
20260502000003 9 0 0.0 0.0 0.00 0.30 0.00 89 1019.7
20260501235004 9 0 0.0 0.0 0.00 0.30 0.00 88 1019.7
20260501234004 9 0 0.0 0.0 0.00 0.30 0.00 87 1019.8
20260501233004 10 0 0.0 0.0 0.00 0.30 0.00 87 1019.8
20260501232003 10 0 0.0 0.0 0.00 0.30 0.00 86 1019.8
20260501231003 10 0 0.0 0.0 0.00 0.30 0.00 84 1019.8
20260501230218 11 0 0.0 0.0 0.00 0.30 0.00 83 1019.8
20260501225003 11 0 0.0 0.0 0.00 0.30 0.30 82 1020.0
20260501224003 12 0 0.0 0.0 0.00 0.30 0.30 82 1020.1
20260501223004 12 0 0.0 0.0 0.00 0.30 0.30 81 1020.2
20260501222004 12 0 0.0 0.0 0.00 0.30 0.30 80 1020.2
20260501221003 12 0 0.0 0.0 0.00 0.30 0.30 80 1020.2
20260501220003 12 0 0.0 0.0 0.00 0.30 0.30 81 1020.2
20260501215218 12 0 0.0 0.0 0.00 0.30 0.30 83 1020.3
20260501214003 12 0 0.0 0.0 0.00 0.30 0.30 84 1020.2
20260501213003 12 0 0.0 3.2 0.00 0.30 0.30 83 1020.2
20260501212003 12 8 1.6 6.4 0.00 0.30 0.30 83 1020.2
20260501211003 13 6 1.6 4.8 0.00 0.30 0.30 83 1020.1